Regional Weather Roundup
Issued by NWS Columbia, SC

Home | Current Version | Previous Version | Text Only | Print | Product List | Glossary On
Versions: 1 2 3 4 5 6 7 8 9 10 11 12 13 14 15 16 17 18 19 20 21 22 23 24 25 26 27 28 29 30 31 32 33 34 35 36 37 38 39 40 41 42 43 44 45 46 47 48 49 50
000
ASUS42 KCAE 290610
RWRCAE
REGIONAL WEATHER ROUNDUP
NATIONAL WEATHER SERVICE COLUMBIA SC
200 AM EDT SUN MAR 29 2015

NOTE: "FAIR" INDICATES FEW OR NO CLOUDS BELOW 12,000 FEET WITH NO
SIGNIFICANT WEATHER AND/OR OBSTRUCTIONS TO VISIBILITY.

NOT ALL STATIONS ARE QUALITY CONTROLLED BY THE NATIONAL
WEATHER SERVICE. USE DATA WITH CAUTION...ESPECIALLY
DEWPOINT OBSERVATIONS.

SCZ001>056-GAZ040-063>065-077-290700-
...UPSTATE SOUTH CAROLINA...

CITY           SKY/WX    TMP DP  RH WIND       PRES   REMARKS
ANDERSON       CLEAR     33  19  56 CALM      30.28R
6HR MIN TEMP:  32; 6HR MAX TEMP:  48;

LIBERTY        CLEAR     28  23  82 CALM      30.27R
6HR MIN TEMP:  28; 6HR MAX TEMP:  72;

SPARTANBURG    FAIR      32  21  64 CALM      30.28R
CLEMSON        CLEAR     37  20  50 CALM      30.28R
6HR MIN TEMP:  37; 6HR MAX TEMP:  49;

GREENVILLE     CLEAR     37  11  34 N9        30.28R WCI  30
6HR MIN TEMP:  37; 6HR MAX TEMP:  46;

GREENWOOD      FAIR      35  18  49 CALM      30.30R
6HR MIN TEMP:  35; 6HR MAX TEMP:  48;

GREER          CLEAR     34  14  43 CALM      30.27R
6HR MIN TEMP:  33; 6HR MAX TEMP:  45;

ROCK HILL      CLEAR     35  10  35 NE3       30.29R
6HR MIN TEMP:  35; 6HR MAX TEMP:  45;

CHESTER        CLEAR     34  16  47 CALM      30.29R
LAURENS        CLEAR     32  23  69 CALM      30.28S


...CENTRAL SOUTH CAROLINA...

CITY           SKY/WX    TMP DP  RH WIND       PRES   REMARKS
COLUMBIA APT   CLEAR     41  19  41 N5        30.29R
6HR MIN TEMP:  41; 6HR MAX TEMP:  50;

COLUMBIA OWENS CLEAR     41  18  39 VRB3      30.31R
6HR MIN TEMP:  41; 6HR MAX TEMP:  52;

DARLINGTON     CLEAR     36  18  48 NE9       30.32R WCI  29
6HR MIN TEMP:  36; 6HR MAX TEMP:  46;

FLORENCE       CLEAR     37  18  46 NE10      30.30R WCI  30
6HR MIN TEMP:  37; 6HR MAX TEMP:  47;

MCENTIRE ANGB  CLEAR     39  15  37 N6        30.29R WCI  35
6HR MIN TEMP:  35; 6HR MAX TEMP:  47;

ORANGEBURG     CLEAR     41  18  39 NE10      30.28R
6HR MIN TEMP:  38; 6HR MAX TEMP:  52;

SUMTER SHAW    CLEAR     38  17  42 NE12      30.27R WCI  30
6HR MIN TEMP:  37; 6HR MAX TEMP:  49;

NEWBERRY       FAIR      34  19  55 N3        30.32R
AIKEN          FAIR      36  19  51 N5        30.31R WCI  32
BARNWELL       FAIR      41  25  52 N7        30.28R
MANNING        FLURRIES  37  21  52 N6        30.28R WCI  33
CAMDEN         FAIR      36  16  44 CALM      30.30R
LANCASTER      CLEAR     32  19  59 E3        30.30R
WINNSBORO      CLEAR     36  19  51 NE3       30.28R


...EASTERN AND COASTAL SOUTH CAROLINA...

CITY           SKY/WX    TMP DP  RH WIND       PRES   REMARKS
MYRTLE BEACH   CLEAR     39  27  60 N16       30.29R WCI  30
6HR MIN TEMP:  39; 6HR MAX TEMP:  52;

N MYRTLE BCH   CLEAR     39  25  57 NE10      30.27R WCI  32
6HR MIN TEMP:  37; 6HR MAX TEMP:  49;

CONWAY         FAIR      37  27  65 N8        30.29R WCI  31
MARION         FAIR      36  21  55 N8        30.30R WCI  29
HARTSVILLE     FAIR      34  21  60 NE8       30.31R WCI  27
FLORENCE       CLEAR     37  18  46 NE10      30.30R WCI  30
6HR MIN TEMP:  37; 6HR MAX TEMP:  47;

DARLINGTON     CLEAR     36  18  48 NE9       30.32R WCI  29
6HR MIN TEMP:  36; 6HR MAX TEMP:  46;

CHARLESTON APT CLEAR     36  32  85 N3        30.25R
6HR MIN TEMP:  36; 6HR MAX TEMP:  49;

MOUNT PLEASANT LGT RAIN  39  32  75 CALM      30.25R
WALTERBORO     CLEAR     36  32  87 N12       30.27R WCI  27
BEAUFORT       CLEAR     39  33  79 W5        30.24R
6HR MIN TEMP:  39; 6HR MAX TEMP:  53;



...EASTERN GEORGIA...

CITY           SKY/WX    TMP DP  RH WIND       PRES   REMARKS
AUGUSTA BUSH F CLEAR     40  19  43 NE6       30.29R
6HR MIN TEMP:  40; 6HR MAX TEMP:  52;

AUGUSTA DANIEL CLEAR     41  17  38 N8        30.29R
6HR MIN TEMP:  41; 6HR MAX TEMP:  53;

THOMSON        CLEAR     32  31  96 CALM      30.33S
6HR MIN TEMP:  32; 6HR MAX TEMP:  50;

WASHINGTON     FAIR      36  30  80 CALM      30.29R
CLAXTON        FAIR      36  36 100 NW3       30.26S
SYLVANIA       CLEAR     41  28  58 NW6       30.26R
6HR MIN TEMP:  36; 6HR MAX TEMP:  52;

STATESBORO     CLEAR     39  28  63 NW7       30.26R WCI  34
6HR MIN TEMP:  36; 6HR MAX TEMP:  49;

SAVANNAH       CLEAR     39  31  72 SW3       30.26R
6HR MIN TEMP:  38; 6HR MAX TEMP:  52;



...SOUTHERN NORTH CAROLINA...

CITY           SKY/WX    TMP DP  RH WIND       PRES   REMARKS
CHARLOTTE      CLEAR     35   6  29 NE12      30.29R WCI  27
6HR MIN TEMP:  35; 6HR MAX TEMP:  44;

MONROE         CLEAR     32  12  43 NE8       30.28R WCI  25
6HR MIN TEMP:  32; 6HR MAX TEMP:  45;

WADESBORO      CLEAR     29  20  71 CALM      30.31R
6HR MIN TEMP:  28; 6HR MAX TEMP:  44;

ROCKINGHAM       N/A     32  12  43 CALM      30.30R
6HR MIN TEMP:  32; 6HR MAX TEMP:  45;

RUTHERFORDTON  CLEAR     31  15  52 CALM      30.28R
6HR MIN TEMP:  30; 6HR MAX TEMP:  42;

ASHEVILLE      CLEAR     31   8  38 N10       30.24R WCI  22
6HR MIN TEMP:  31; 6HR MAX TEMP:  38;


$$


USA.gov is the U.S. government's official web portal to all federal, state and local government web resources and services.